User: anonymous
Location: Radford
(37.1320°N, 80.5770°W)
Time: 07:49:01
(UTC-04:00)
Language:

Okean 1-7 - Orbit

View from above orbital plane
View from above orbital plane
View from above satellite
View from above satellite

Ground track
Ground track

The orbit data is extracted from the following two-line orbital elements,

1 23317U 94066A   14272.47952755  .00001488  00000-0  16792-3 0  6672
2 23317 082.5392 330.1422 0022132 113.6796 311.0844 14.85744826 78594
Epoch (UTC): 29 September 2014 11:30:31
Eccentricity: 0.0022132
inclination: 82.5392°
perigee height: 596 km
apogee height: 627 km
right ascension of ascending node: 330.1422°
argument of perigee: 113.6796°
revolutions per day: 14.85744826
mean anomaly at epoch: 311.0844°
orbit number at epoch: 7859

The dashed part of the orbit path shows where the satellite is in the earth's shadow,  

DLR